map of KBL home
KBL - Airport
Location
City:  Kabul, Kabul, Afghanistan
Name:Hamid Karzai International Airport
ICAO:OAKB
IATA:KBL

Details
Type:Airport (Aerodrome, Airfield)
Use:International (customs port of entry)
Latitude:3433'57"N (34.565842)
Longitude:6912'45"E (69.212419)
Elevation:5871 ft (1789 m)
Variation:3.19E (WMM2015 magnetic declination)
0.06 annual change
Runways:1
Longest:11483 × 164 ft (3500 × 50 m), paved

Time
Time Zone:UTC+4:30
Local Time:

Weather
METAR:OAKB 251550Z 03019G33KT CAVOK 26/M08 Q1010 NOSIG RMK A2985 BLU BLU
TAF:OAKB 251705Z 2518/2618 03020G30KT CAVOK
BECMG 2520/2522 02012KT
BECMG 2522/2524 VRB02KT
BECMG 2605/2607 36012G22KT FEW100
TEMPO 2611/2615 02015G30KT
BECMG 2613/2615 FEW080 SCT100

Related Locations
Nearby:
Farthest:IPC: 11914 mi / 19174 km
Easter Island (Isla de Pascua, Rapa Nui) [Mataveri Intl], VS, CL

Find:

   beyond  
but within

Other Information
Maps:
NOTAMs:
Links:
Sources:

  
  • flag of Afghanistan
  

Sectional Chart

Flight Planning
at skyvector.com

Satellite Image

Google Maps Satellite view

 

Copyright © 2004-2018 Karl L. Swartz. All rights reserved.
The Great Circle Mapper name and logo are trademarks of the Great Circle Mapper.
All other trademarks mentioned herein belong to their respective owners.
Please see credits for attibutions and further copyright information.

  Follow gcmap on Facebook Follow gcmap on Twitter Follow gcmap on Google+ GCmap on LinkedIn

hCard Microformat

Geo Microformat